[[[{"header":{"parameterUnit":"kt","parameterCategory":2,"dx":1,"dy":1,"la1":30.253999710083008,"la2":30.299108505249023,"lo1":-89.0895004272461,"lo2":-89.04439544677734,"nx":28,"ny":28,"refTime":"2022-10-01T21:00:00:Z","depth":"0","parameterNumber":2,"parameterNumberName":"U-component_of_CURRENTS"},"data":[0.7112,0.6943,0.6904,0.6533,0.6413,0.6083,0.6008,0.6018,0.6272,0.6708,0.7264,0.7851,0.8746,0.9514,0.9469,0.9308,0.8467,0.8357,0.804,0.8776,0.8823,0.8867,0.8579,0.8416,0.8415,0.6589,0.6576,0.6565,0.7267,0.7191,0.7164,0.7,0.6818,0.6899,0.6854,0.6744,0.6772,0.7247,0.7551,0.8522,0.909,0.9695,1.0264,1.0021,0.9597,0.9728,0.9033,0.8813,0.9968,0.9721,0.9798,0.9799,0.9799,0.9799,0.98,0.98,0.7428,0.7432,0.73,0.7288,0.7246,0.7142,0.709,0.7167,0.7302,0.7533,0.794,0.8376,0.9227,1.0286,1.0447,1.0612,1.048,1.0407,1.0323,0.9966,0.9461,1.0621,1.1054,1.1055,1.1056,1.1057,1.1058,0,0.7375,0.7357,0.7396,0.735,0.7348,0.7385,0.7423,0.7523,0.7707,0.7931,0.8174,0.8483,0.9292,0.9751,1.0518,1.0821,1.0354,1.0926,1.0485,0.9902,0.9379,0.9037,1.015,1.0682,1.0681,1.0681,1.068,1.068,0.7159,0.7224,0.7301,0.7292,0.7352,0.7481,0.7492,0.7702,0.7775,0.8166,0.8239,0.8754,0.9062,0.9823,1.022,1.0805,1.038,1.09,1.0618,1.0129,0.9957,0.9519,0.9225,1.0673,1.0674,1.0675,1.0676,0,0.6986,0.7005,0.717,0.7262,0.7293,0.7429,0.7579,0.7669,0.7927,0.8161,0.8281,0.8619,0.9047,0.9438,0.9911,1.0023,1.0171,1.0557,1.0353,1.0324,1.0015,0.9856,0.9868,0.9567,1.0925,1.0929,1.0932,0,0.6785,0.6918,0.6947,0.7056,0.7214,0.7294,0.751,0.7664,0.7888,0.8059,0.8335,0.8533,0.8844,0.9188,0.9419,0.983,0.9904,0.9968,0.9972,0.9789,0.9765,0.9458,0.9285,1.0021,1.0016,1.0012,1.0008,0,0.6667,0.6783,0.691,0.6968,0.715,0.7235,0.733,0.7563,0.7702,0.8028,0.8183,0.8528,0.8697,0.9005,0.9252,0.9117,0.9732,0.9535,0.9772,0.9772,0.9762,0.9742,0.9765,1.0002,1.0001,0.9999,0.9998,0,0.6596,0.6681,0.682,0.6992,0.7046,0.7127,0.738,0.748,0.774,0.784,0.8085,0.8218,0.8522,0.8441,0.8903,0.8698,0.8908,0.9006,0.9027,0.9042,0.8838,0.9171,0.9543,0.91,0.9164,0.9156,0.9149,0,0.6507,0.6647,0.6714,0.686,0.6967,0.707,0.7168,0.7321,0.7444,0.7639,0.7784,0.7971,0.7954,0.8065,0.823,0.8371,0.8619,0.8307,0.8721,0.8737,0.8696,0.9048,0.8906,0.9415,0.9048,0.9059,0.9067,0,0.6467,0.6628,0.6644,0.673,0.6874,0.6968,0.7062,0.723,0.7353,0.7445,0.7624,0.7755,0.7868,0.7915,0.7952,0.8097,0.8449,0.806,0.8067,0.829,0.8926,0.8908,0.8975,0.838,0.8391,0.84,0.8987,0,0.6475,0.6558,0.6609,0.6747,0.6827,0.6922,0.7018,0.7107,0.7144,0.7222,0.741,0.7479,0.7622,0.7604,0.7601,0.7866,0.7883,0.7777,0.7711,0.7894,0.812,0.8183,0.7409,0.7407,0.7405,0.7404,0,0,0.6402,0.6518,0.6616,0.6696,0.6762,0.6848,0.6922,0.6985,0.7085,0.7159,0.7095,0.73,0.7297,0.7471,0.7522,0.7489,0.7615,0.746,0.7764,0.7803,0.784,0.8066,0.8128,0.7401,0.74,0.7399,0.7399,0,0.6424,0.6515,0.6585,0.6662,0.678,0.6839,0.6864,0.6963,0.6995,0.7077,0.7091,0.7193,0.7204,0.728,0.7299,0.7449,0.7477,0.7414,0.7558,0.774,0.7781,0.7819,0.8048,0.8106,0.7395,0.7395,0.7395,0,0.6408,0.6492,0.6532,0.6667,0.6733,0.6807,0.6802,0.6888,0.6934,0.6914,0.6982,0.7025,0.7044,0.7126,0.7155,0.7101,0.7377,0.7189,0.7199,0.7294,0.7483,0.7529,0.757,0.7047,0.7046,0.7045,0,0,0.642,0.6504,0.6603,0.6672,0.6719,0.6785,0.6829,0.6852,0.6904,0.6923,0.6931,0.6952,0.7003,0.7006,0.7055,0.7119,0.7233,0.7146,0.7163,0.7176,0.7275,0.7467,0.7511,0.7041,0.7041,0.704,0,0,0.6406,0.6527,0.6551,0.6635,0.6716,0.6793,0.6837,0.6849,0.6901,0.6893,0.6867,0.6868,0.6947,0.6929,0.6876,0.6995,0.6929,0.6941,0.6989,0.7009,0.7025,0.7134,0.6782,0,0,0,0,0,0.6467,0.6521,0.6544,0.6567,0.6697,0.6798,0.6816,0.6833,0.6804,0.6844,0.6861,0.6797,0.6904,0.6857,0.6863,0.6898,0.6983,0.6994,0.7003,0.7084,0.7106,0.7124,0,0,0,0,0,0,0.6477,0.6505,0.6542,0.6621,0.665,0.6795,0.6746,0.6754,0.6799,0.6794,0.6804,0.6798,0.6779,0.6849,0.6856,0.689,0.678,0.6987,0.6996,0.7004,0.7092,0.7109,0.7125,0,0,0,0,0,0.6485,0.6507,0.6706,0.662,0.6646,0.6692,0.6742,0.6748,0.6783,0.6781,0.6778,0.679,0.6782,0.6784,0.6853,0.6888,0.6775,0.6777,0.6993,0.7,0.7006,0.71,0,0,0,0,0,0,0.649,0.6518,0.6712,0.6722,0.658,0.6684,0.6699,0.6743,0.6766,0.6766,0.6764,0.6759,0.6785,0.6786,0.6788,0.689,0.6771,0.6773,0.6775,0.6998,0.7003,0.7008,0,0,0,0,0,0,0.6506,0.6526,0.6717,0.6665,0.6669,0.6676,0.669,0.6729,0.6762,0.6745,0.6744,0.6761,0.6747,0.6788,0.6789,0.6854,0.6768,0.677,0.6772,0.6773,0.7002,0.7007,0,0,0,0,0,0,0.6515,0.6532,0.6663,0.6666,0.6668,0.6772,0.6707,0.6817,0.6787,0.6742,0.6777,0.6772,0.6747,0.6751,0.6791,0.6855,0.6854,0.6768,0.677,0.6771,0.6772,0,0,0,0,0,0,0,0.6522,0.64,0.6658,0.6666,0.6668,0.6806,0.6808,0.6811,0.6786,0.6782,0.6778,0.6774,0.6753,0.6756,0.6759,0.6856,0,0,0.6768,0.6769,0,0,0,0,0,0,0,0,0.6394,0.6398,0.6658,0.666,0.6662,0.6806,0.6808,0.681,0.6785,0.6782,0.6778,0.6775,0.6754,0.6756,0.6759,0,0,0,0,0,0,0,0,0,0,0,0,0,0,0,0.6658,0.666,0,0.6806,0.6808,0.681,0.6784,0.6782,0.6779,0.6777,0.6755,0.6757,0.6759,0,0,0,0,0,0,0,0,0,0,0,0,0,0,0,0,0,0,0,0,0,0,0,0,0,0,0,0,0,0,0,0,0,0,0,0,0,0,0,0,0,0,0,0,0,0,0,0,0,0,0,0,0,0,0,0,0,0,0,0,0,0,0,0,0,0,0,0,0]}],[{"header":{"parameterUnit":"kt","parameterCategory":2,"dx":1,"dy":1,"la1":30.253999710083008,"la2":30.299108505249023,"lo1":-89.0895004272461,"lo2":-89.04439544677734,"nx":28,"ny":28,"refTime":"2022-10-01T21:00:00:Z","depth":"0","parameterNumber":3,"parameterNumberName":"V-component_of_CURRENTS"},"data":[0.2059,0.2325,0.2483,0.3072,0.3399,0.3918,0.4261,0.4648,0.5108,0.574,0.6195,0.6568,0.6045,0.2575,0.0091,-0.0481,-0.1421,-0.1436,-0.1987,-0.1179,-0.1105,-0.1036,-0.1302,-0.176,-0.1763,-0.314,-0.3155,-0.3166,0.2015,0.2173,0.2542,0.2952,0.3351,0.3548,0.4182,0.4472,0.4904,0.5434,0.5715,0.5842,0.4629,0.349,0.177,0.0648,0.0217,0.0056,-0.0265,-0.0475,0.0834,0.0645,0.0593,0.0594,0.0594,0.0595,0.0595,0.0596,0.1846,0.2053,0.2245,0.2638,0.3009,0.348,0.385,0.4216,0.4732,0.5213,0.5322,0.554,0.4845,0.3778,0.2931,0.1613,0.1568,0.113,0.0818,0.068,0.0211,0.156,0.1802,0.1801,0.18,0.18,0.1799,0,0.1568,0.1669,0.1892,0.2264,0.2594,0.3031,0.3455,0.382,0.4159,0.4539,0.4896,0.4985,0.4571,0.3973,0.3165,0.2674,0.1569,0.1972,0.1356,0.0723,0.0442,0.0052,0.1394,0.1831,0.183,0.183,0.1829,0.1829,0.1166,0.134,0.1658,0.1851,0.1978,0.2413,0.2714,0.3021,0.3386,0.3879,0.4181,0.4255,0.4288,0.3762,0.2977,0.2408,0.1733,0.1982,0.1589,0.0951,0.051,0.0275,-0.0008,0.1821,0.1822,0.1823,0.1824,0,0.0939,0.0931,0.1255,0.1465,0.1578,0.1925,0.2342,0.2711,0.2991,0.3539,0.3701,0.3763,0.3611,0.3173,0.2773,0.2251,0.1629,0.1751,0.18,0.1717,0.0846,0.05,0.049,0.018,0.1661,0.166,0.166,0,0.056,0.0763,0.0841,0.0992,0.1401,0.1391,0.1907,0.2058,0.2435,0.2838,0.28,0.312,0.2655,0.2569,0.2066,0.1706,0.1888,0.1195,0.1118,0.113,0.111,0.0645,0.029,0.1329,0.1326,0.1323,0.1321,0,0.0346,0.0431,0.0641,0.0671,0.0837,0.1016,0.1137,0.1388,0.1648,0.2029,0.2318,0.2359,0.2442,0.2203,0.1649,0.1464,0.1531,0.1245,0.099,0.0978,0.1098,0.1079,0.0898,0.1317,0.1316,0.1315,0.1314,0,0.0059,0.0139,0.0318,0.0539,0.059,0.067,0.1014,0.1085,0.1355,0.1446,0.1627,0.1612,0.1638,0.1254,0.1134,0.1007,0.0782,0.0582,0.059,0.0496,0.0202,0.0615,0.0884,0.0286,0.0556,0.0549,0.0544,0,-0.0063,0.0055,-0.0018,0.0142,0.0244,0.0188,0.0289,0.0373,0.0434,0.0716,0.0635,0.0818,0.0383,0.0495,0.0412,0.0208,0.0269,0.0036,0.023,0.0241,0.016,0.0383,0.0436,0.0779,0.0463,0.0471,0.0477,0,-0.015,-0.0153,-0.0142,-0.0039,-0.0143,-0.0071,-0.0075,0.003,0.0264,0.0111,0.0448,0.0142,0.0198,0.0158,-0.0005,-0.0016,0.0121,-0.0219,-0.0217,-0.0004,0.042,0.0282,0.0324,0.0005,0.0014,0.0022,0.0413,0,-0.0222,-0.0206,-0.0195,-0.0211,-0.0218,-0.0206,-0.0256,-0.0234,-0.0272,-0.0253,-0.0157,-0.0342,-0.0262,-0.0434,-0.0613,-0.0449,-0.0464,-0.0604,-0.0574,-0.0464,-0.0327,-0.0276,-0.0915,-0.0917,-0.0919,-0.0921,0,0,-0.0276,-0.0259,-0.0328,-0.032,-0.0307,-0.04,-0.0356,-0.0405,-0.0479,-0.0389,-0.0531,-0.0545,-0.0737,-0.0629,-0.0701,-0.0836,-0.0755,-0.0739,-0.0587,-0.055,-0.0516,-0.0375,-0.0323,-0.0924,-0.0925,-0.0926,-0.0927,0,-0.0295,-0.034,-0.0326,-0.0357,-0.0388,-0.0422,-0.0422,-0.0472,-0.0481,-0.054,-0.0616,-0.0658,-0.0817,-0.0827,-0.087,-0.0871,-0.0829,-0.0956,-0.0713,-0.0612,-0.0573,-0.0538,-0.0392,-0.0344,-0.0932,-0.0931,-0.0931,0,-0.034,-0.0367,-0.0375,-0.042,-0.0443,-0.0449,-0.0494,-0.0511,-0.0506,-0.0627,-0.065,-0.075,-0.0856,-0.0911,-0.0945,-0.095,-0.0845,-0.0998,-0.099,-0.083,-0.072,-0.0679,-0.0643,-0.1089,-0.1089,-0.1089,0,0,-0.0355,-0.037,-0.0417,-0.0427,-0.0437,-0.0483,-0.0503,-0.0527,-0.0585,-0.0612,-0.0679,-0.0759,-0.0839,-0.0872,-0.0959,-0.1008,-0.0913,-0.1009,-0.1002,-0.0995,-0.0835,-0.0723,-0.0686,-0.1088,-0.1088,-0.1088,0,0,-0.0358,-0.0404,-0.0423,-0.0437,-0.0473,-0.0523,-0.0528,-0.0557,-0.0624,-0.0625,-0.0712,-0.0737,-0.081,-0.0869,-0.0848,-0.0933,-0.0974,-0.0981,-0.0861,-0.0853,-0.0847,-0.0624,-0.0883,0,0,0,0,0,-0.0396,-0.0397,-0.0414,-0.0422,-0.048,-0.0516,-0.0527,-0.0562,-0.0568,-0.058,-0.0655,-0.0685,-0.0873,-0.0857,-0.0882,-0.0859,-0.1076,-0.1078,-0.108,-0.0943,-0.0934,-0.0926,0,0,0,0,0,0,-0.0399,-0.0407,-0.0414,-0.0461,-0.0474,-0.0516,-0.0535,-0.0546,-0.0567,-0.057,-0.067,-0.0688,-0.0746,-0.0849,-0.087,-0.0846,-0.0876,-0.1077,-0.1079,-0.108,-0.094,-0.0932,-0.0926,0,0,0,0,0,-0.0401,-0.0408,-0.0487,-0.0462,-0.0474,-0.0522,-0.0534,-0.0543,-0.0565,-0.0654,-0.0671,-0.0587,-0.0745,-0.0767,-0.0862,-0.0834,-0.0862,-0.087,-0.1078,-0.108,-0.1081,-0.0936,0,0,0,0,0,0,-0.0403,-0.0429,-0.0491,-0.0497,-0.0454,-0.0521,-0.053,-0.0541,-0.065,-0.0664,-0.0577,-0.0578,-0.0744,-0.0762,-0.0779,-0.0824,-0.085,-0.0858,-0.0863,-0.1079,-0.108,-0.1081,0,0,0,0,0,0,-0.0425,-0.0434,-0.0495,-0.0482,-0.0487,-0.0519,-0.0528,-0.0609,-0.0653,-0.0568,-0.0571,-0.0576,-0.0733,-0.0758,-0.0772,-0.0897,-0.0841,-0.0849,-0.0854,-0.0857,-0.108,-0.1081,0,0,0,0,0,0,-0.043,-0.0437,-0.0482,-0.0485,-0.049,-0.0561,-0.0596,-0.0665,-0.0604,-0.0565,-0.0602,-0.0602,-0.0729,-0.0743,-0.0767,-0.0885,-0.0894,-0.0842,-0.0847,-0.085,-0.0853,0,0,0,0,0,0,0,-0.0434,-0.0371,-0.0452,-0.0488,-0.0492,-0.0549,-0.0551,-0.0553,-0.0603,-0.0603,-0.0603,-0.0602,-0.0799,-0.0807,-0.0815,-0.0876,0,0,-0.0841,-0.0845,0,0,0,0,0,0,0,0,-0.037,-0.0371,-0.0452,-0.0453,-0.0454,-0.0549,-0.0551,-0.0553,-0.0603,-0.0603,-0.0603,-0.0602,-0.0801,-0.0808,-0.0814,0,0,0,0,0,0,0,0,0,0,0,0,0,0,0,-0.0452,-0.0453,0,-0.055,-0.0551,-0.0553,-0.0603,-0.0603,-0.0603,-0.0602,-0.0803,-0.0808,-0.0814,0,0,0,0,0,0,0,0,0,0,0,0,0,0,0,0,0,0,0,0,0,0,0,0,0,0,0,0,0,0,0,0,0,0,0,0,0,0,0,0,0,0,0,0,0,0,0,0,0,0,0,0,0,0,0,0,0,0,0,0,0,0,0,0,0,0,0,0,0]}]],[[{"header":{"parameterUnit":"kt","parameterCategory":2,"dx":1,"dy":1,"la1":30.253999710083008,"la2":30.299108505249023,"lo1":-89.0895004272461,"lo2":-89.04439544677734,"nx":28,"ny":28,"refTime":"2022-10-01T21:00:00:Z","depth":"2","parameterNumber":2,"parameterNumberName":"U-component_of_CURRENTS"},"data":[0.6136,0.6113,0.62,0.6253,0.6381,0.6341,0.6345,0.59,0.5683,0.4938,0.4643,0.476,0.4945,0.4204,0.4136,0.3858,0.4229,0.3694,0.5166,0.5308,0.5404,0.5665,0.5406,0,0,0,0,0,0.6259,0.6275,0.6437,0.6506,0.6624,0.6746,0.6855,0.6647,0.64,0.6338,0.6079,0.5308,0.5023,0.5096,0.4771,0.4727,0.4726,0.4539,0.4555,0.4673,0.4777,0.452,0.3628,0.3622,0.3616,0.361,0,0,0.625,0.6426,0.6331,0.6547,0.6674,0.6785,0.6881,0.6919,0.6994,0.6935,0.7049,0.6694,0.674,0.6165,0.5911,0.5805,0.6264,0.6023,0.6066,0.6123,0.5933,0.5616,0.5416,0.5423,0.5428,0.5434,0.5438,0,0.6055,0.6108,0.6204,0.6345,0.6463,0.674,0.6923,0.7097,0.7401,0.7538,0.7556,0.7507,0.7569,0.7108,0.698,0.6793,0.7,0.6734,0.7672,0.6555,0.6238,0.6182,0.6202,0.6204,0.6216,0.6224,0.623,0.6235,0.5701,0.5796,0.6004,0.6065,0.6149,0.6468,0.6616,0.6921,0.7165,0.7592,0.7758,0.7991,0.7928,0.7946,0.7768,0.7581,0.7781,0.7009,0.6874,0.7424,0.7371,0.7347,0.7322,0.6357,0.6342,0.6329,0.6319,0,0.5472,0.5444,0.5719,0.587,0.5887,0.62,0.6518,0.677,0.7104,0.753,0.7679,0.7944,0.803,0.8076,0.8247,0.8046,0.802,0.7902,0.7211,0.71,0.7394,0.7358,0.7615,0.7605,0.7596,0.7589,0.7583,0,0.5208,0.5366,0.5472,0.5545,0.5828,0.5952,0.632,0.6519,0.6897,0.7202,0.7414,0.7633,0.7862,0.798,0.7894,0.782,0.8115,0.7697,0.7667,0.7221,0.7139,0.7842,0.7797,0.822,0.822,0.8219,0.8219,0,0.5129,0.5258,0.5429,0.5481,0.5699,0.5828,0.5985,0.6314,0.6569,0.6965,0.7202,0.7434,0.7655,0.7767,0.7717,0.7686,0.8,0.7977,0.7636,0.76,0.7206,0.7118,0.8218,0.8218,0.8218,0.8218,0.8218,0,0.5048,0.5121,0.5311,0.55,0.5581,0.5672,0.6033,0.6189,0.6514,0.667,0.6905,0.7015,0.7265,0.7163,0.7446,0.736,0.7379,0.7444,0.745,0.7109,0.6932,0.6534,0.6644,0.7346,0.734,0.7335,0.733,0,0.4968,0.5101,0.5146,0.5306,0.5448,0.5569,0.5716,0.5914,0.6085,0.6343,0.6468,0.6698,0.6553,0.6704,0.6852,0.7012,0.7128,0.6954,0.72,0.7202,0.688,0.7102,0.6593,0.6593,0.7264,0.7271,0.7276,0,0.4934,0.5048,0.506,0.5151,0.5301,0.5412,0.5558,0.5773,0.5941,0.6046,0.6293,0.6368,0.6468,0.6501,0.6545,0.6726,0.6986,0.6699,0.6708,0.6712,0.7398,0.7041,0.705,0.7135,0.7146,0.7155,0.7223,0,0.493,0.499,0.5029,0.5141,0.5247,0.5344,0.5485,0.5609,0.5681,0.576,0.6002,0.607,0.6211,0.622,0.6178,0.6476,0.6401,0.6436,0.6382,0.6575,0.6551,0.6594,0.6047,0.6044,0.6041,0.6039,0,0,0.4885,0.4952,0.5027,0.5088,0.5166,0.5255,0.5367,0.5422,0.5561,0.5668,0.5624,0.5846,0.5859,0.6054,0.6088,0.6081,0.6151,0.6062,0.6429,0.6472,0.6512,0.6506,0.6549,0.6034,0.6033,0.6032,0.6031,0,0.4881,0.4945,0.4999,0.5063,0.518,0.5229,0.5276,0.5388,0.5453,0.5563,0.5593,0.5722,0.5772,0.5855,0.5873,0.6032,0.6035,0.6025,0.6151,0.6397,0.6443,0.6485,0.6487,0.6528,0.6025,0.6025,0.6026,0,0.4885,0.4919,0.495,0.5055,0.5111,0.5194,0.519,0.5282,0.5347,0.5341,0.5467,0.5523,0.5541,0.5664,0.5721,0.5672,0.5934,0.5803,0.5816,0.5849,0.61,0.6151,0.6197,0.5624,0.5623,0.5623,0,0,0.4886,0.492,0.5026,0.5063,0.5126,0.5169,0.5202,0.524,0.53,0.5328,0.5385,0.5436,0.5495,0.5544,0.5602,0.5705,0.5753,0.5758,0.5777,0.5793,0.5833,0.6086,0.6134,0.5619,0.5619,0.5619,0,0,0.4874,0.4959,0.499,0.5049,0.5128,0.5158,0.5194,0.5208,0.5276,0.5296,0.5302,0.5321,0.5462,0.5451,0.5405,0.5575,0.549,0.5501,0.5598,0.5621,0.564,0.5678,0.5346,0,0,0,0,0,0.4918,0.4952,0.498,0.4999,0.5073,0.5151,0.5158,0.5179,0.5165,0.5212,0.5264,0.5239,0.543,0.539,0.5405,0.5484,0.5574,0.5582,0.5589,0.5738,0.5763,0.5784,0,0,0,0,0,0,0.4925,0.4947,0.4979,0.5012,0.5029,0.5147,0.5104,0.5108,0.5163,0.5166,0.5226,0.5238,0.5242,0.5381,0.5395,0.5471,0.5341,0.5577,0.5584,0.559,0.5747,0.5767,0.5784,0,0,0,0,0,0.4931,0.4949,0.5073,0.501,0.5025,0.5065,0.5103,0.5108,0.515,0.5185,0.5196,0.5175,0.524,0.5257,0.5389,0.5465,0.5332,0.5337,0.5581,0.5587,0.5591,0.5757,0,0,0,0,0,0,0.4935,0.4927,0.5075,0.5079,0.5016,0.5061,0.5072,0.5107,0.5167,0.5178,0.5131,0.5132,0.5239,0.5253,0.5265,0.5465,0.5324,0.5329,0.5332,0.5585,0.559,0.5593,0,0,0,0,0,0,0.4918,0.493,0.5076,0.5083,0.5088,0.5056,0.5067,0.512,0.5169,0.5108,0.5112,0.5132,0.5253,0.5249,0.5259,0.5338,0.5318,0.5323,0.5326,0.5329,0.5589,0.5592,0,0,0,0,0,0,0.4923,0.4933,0.5081,0.5085,0.5089,0.5127,0.5105,0.5195,0.5131,0.5106,0.5133,0.5134,0.5252,0.526,0.5255,0.5329,0.5336,0.5318,0.5321,0.5324,0.5326,0,0,0,0,0,0,0,0.4927,0.4864,0.5064,0.5086,0.5089,0.5119,0.5119,0.5119,0.5132,0.5132,0.5133,0.5134,0.5289,0.5294,0.53,0.5322,0,0,0.5318,0.532,0,0,0,0,0,0,0,0,0.486,0.4863,0.5064,0.5065,0.5067,0.5119,0.5119,0.5119,0.5132,0.5132,0.5133,0.5133,0.529,0.5295,0.5299,0,0,0,0,0,0,0,0,0,0,0,0,0,0,0,0.5064,0.5065,0,0.5119,0.5119,0.5119,0.5132,0.5132,0.5133,0.5133,0.5292,0.5295,0.5299,0,0,0,0,0,0,0,0,0,0,0,0,0,0,0,0,0,0,0,0,0,0,0,0,0,0,0,0,0,0,0,0,0,0,0,0,0,0,0,0,0,0,0,0,0,0,0,0,0,0,0,0,0,0,0,0,0,0,0,0,0,0,0,0,0,0,0,0,0]}],[{"header":{"parameterUnit":"kt","parameterCategory":2,"dx":1,"dy":1,"la1":30.253999710083008,"la2":30.299108505249023,"lo1":-89.0895004272461,"lo2":-89.04439544677734,"nx":28,"ny":28,"refTime":"2022-10-01T21:00:00:Z","depth":"2","parameterNumber":3,"parameterNumberName":"V-component_of_CURRENTS"},"data":[0.0924,0.1103,0.1235,0.1568,0.1798,0.2175,0.2421,0.2845,0.3078,0.3305,0.3262,0.3035,0.205,0.1285,0.0417,-0.0165,-0.0275,-0.0288,-0.0261,0.0026,0.0045,-0.0584,-0.0394,0,0,0,0,0,0.0951,0.1104,0.1261,0.1572,0.1787,0.1937,0.225,0.2521,0.2937,0.3078,0.3216,0.2517,0.1841,0.1071,0.0008,-0.0653,-0.0666,-0.0863,-0.0718,-0.0708,-0.0699,-0.0587,-0.0797,-0.0799,-0.08,-0.0801,0,0,0.1004,0.1112,0.1332,0.1549,0.1739,0.1975,0.2178,0.2411,0.268,0.2947,0.2787,0.272,0.2029,0.0966,0.0248,-0.0483,-0.0472,-0.0747,-0.0737,-0.0728,-0.0625,-0.0573,-0.084,-0.0841,-0.0842,-0.0842,-0.0843,0,0.1083,0.121,0.1354,0.1585,0.1737,0.1933,0.2109,0.2236,0.2418,0.2556,0.2624,0.2538,0.1866,0.1261,0.0391,-0.0063,-0.0409,-0.0586,-0.0546,-0.037,-0.0313,-0.0403,-0.0386,-0.0546,-0.0545,-0.0545,-0.0544,-0.0544,0.1129,0.1237,0.1507,0.1604,0.1684,0.1877,0.1979,0.2134,0.2226,0.2318,0.2327,0.2095,0.1931,0.115,0.0518,-0.014,-0.0217,-0.0546,-0.0517,-0.0423,-0.0522,-0.0501,-0.0481,-0.0536,-0.0537,-0.0538,-0.0538,0,0.1143,0.1263,0.1442,0.163,0.1689,0.1813,0.1986,0.2072,0.2144,0.2214,0.2214,0.203,0.1694,0.1242,0.0697,0.0338,-0.012,-0.0316,-0.0184,-0.0281,-0.0469,-0.0454,-0.0672,-0.0676,-0.068,-0.0683,-0.0685,0,0.113,0.1242,0.14,0.1484,0.1654,0.1717,0.1864,0.1891,0.1939,0.2008,0.1861,0.182,0.1424,0.1122,0.0731,0.0255,0.0273,-0.01,-0.0222,-0.013,-0.013,-0.0097,-0.0094,-0.0097,-0.0095,-0.0092,-0.009,0,0.1022,0.1196,0.134,0.1392,0.1517,0.1589,0.1644,0.1664,0.1715,0.1691,0.1697,0.1515,0.1418,0.109,0.068,0.0671,0.0253,0.0176,-0.0142,-0.0153,-0.0185,-0.0194,-0.0087,-0.0087,-0.0086,-0.0085,-0.0084,0,0.0949,0.1058,0.1218,0.1359,0.1382,0.1444,0.1519,0.1561,0.153,0.15,0.1434,0.1297,0.1186,0.1034,0.0691,0.0761,0.0487,0.0288,0.0269,0.0167,0.0009,-0.0171,-0.0178,-0.0029,-0.0026,-0.0024,-0.0022,0,0.0836,0.1,0.1017,0.1154,0.1221,0.1185,0.1239,0.1239,0.1194,0.1188,0.1062,0.1035,0.0899,0.0866,0.0758,0.0532,0.0412,0.0532,0.0102,0.009,0.0043,0.0054,0.0134,-0.0142,0.0005,0.0002,-0.0,0,0.073,0.0837,0.0851,0.0914,0.0923,0.0951,0.0985,0.0996,0.1038,0.0941,0.0973,0.0878,0.079,0.075,0.0631,0.0545,0.044,0.0407,0.0397,0.0281,0.0147,0.0092,0.0067,0.0343,0.0342,0.0342,0.0021,0,0.0667,0.0729,0.0768,0.0809,0.0817,0.086,0.081,0.0802,0.0749,0.0716,0.0686,0.0561,0.0512,0.0466,0.0404,0.0387,0.0288,0.0221,0.0165,0.0223,0.0067,0.0051,0.0194,0.0191,0.0189,0.0187,0,0,0.0534,0.0616,0.0576,0.0635,0.066,0.056,0.0616,0.0583,0.0528,0.0532,0.046,0.0361,0.028,0.0279,0.0296,0.0233,0.0124,0.0244,0.02,0.0203,0.0204,0.0061,0.0049,0.0182,0.0181,0.018,0.018,0,0.051,0.0505,0.0562,0.0565,0.0555,0.0521,0.0528,0.0479,0.045,0.044,0.0344,0.0296,0.0216,0.0171,0.0139,0.0197,0.0055,0.0159,0.0298,0.0182,0.0188,0.0192,0.0053,0.0044,0.0174,0.0174,0.0174,0,0.0415,0.0432,0.0452,0.046,0.0434,0.0454,0.0372,0.0379,0.0399,0.0265,0.0256,0.0172,0.009,0.0072,0.0054,0.0027,-0.0013,0.0023,0.0034,0.0079,-0.0045,-0.0037,-0.003,-0.0119,-0.0119,-0.0119,0,0,0.0387,0.0436,0.0401,0.0446,0.0433,0.0383,0.0377,0.0345,0.0301,0.0276,0.0203,0.0133,0.0085,0.0057,-0.0003,-0.001,-0.01,-0.0006,0.0008,0.0019,0.007,-0.0048,-0.0041,-0.0121,-0.0121,-0.0121,0,0,0.0365,0.0369,0.0339,0.0389,0.0366,0.0326,0.0337,0.0299,0.0249,0.0236,0.0138,0.0114,0.0082,0.0024,0.0018,-0.0013,-0.0079,-0.0079,0.0044,0.0059,0.0073,0.015,-0.0071,0,0,0,0,0,0.0321,0.0376,0.0349,0.0353,0.0342,0.0342,0.0336,0.0285,0.0251,0.0254,0.0184,0.012,0.0001,-0.0007,-0.0024,0.0003,-0.0137,-0.0134,-0.0132,0.0021,0.0039,0.0054,0,0,0,0,0,0,0.0322,0.0328,0.0347,0.0316,0.0314,0.034,0.0275,0.0261,0.0249,0.0238,0.0138,0.0118,0.0048,-0.0004,-0.0018,0.001,-0.0067,-0.0136,-0.0134,-0.0132,0.0027,0.0042,0.0054,0,0,0,0,0,0.0323,0.0328,0.0331,0.0314,0.0311,0.0259,0.0273,0.026,0.0239,0.0151,0.0131,0.0203,0.0051,0.0032,-0.0013,0.0019,-0.0057,-0.0062,-0.0135,-0.0133,-0.0131,0.0034,0,0,0,0,0,0,0.0324,0.0297,0.0328,0.0325,0.0298,0.0255,0.0248,0.026,0.0149,0.0133,0.0212,0.0205,0.0054,0.0038,0.0025,0.0027,-0.005,-0.0055,-0.0058,-0.0133,-0.0132,-0.013,0,0,0,0,0,0,0.0295,0.0295,0.0326,0.0309,0.0302,0.0251,0.0246,0.0201,0.0146,0.0212,0.0205,0.021,0.006,0.0043,0.0032,-0.0036,-0.0044,-0.0049,-0.0052,-0.0054,-0.0132,-0.0131,0,0,0,0,0,0,0.0293,0.0293,0.0309,0.0304,0.0298,0.0247,0.0206,0.0184,0.0179,0.0215,0.0173,0.0171,0.0065,0.0053,0.0037,-0.0025,-0.0033,-0.0044,-0.0047,-0.005,-0.0051,0,0,0,0,0,0,0,0.0292,0.0314,0.0359,0.03,0.0294,0.0294,0.0292,0.029,0.0178,0.0176,0.0174,0.0172,-0.0015,-0.0021,-0.0026,-0.0016,0,0,-0.0043,-0.0046,0,0,0,0,0,0,0,0,0.0312,0.0314,0.0359,0.0359,0.0358,0.0293,0.0292,0.029,0.0178,0.0176,0.0174,0.0173,-0.0017,-0.0021,-0.0026,0,0,0,0,0,0,0,0,0,0,0,0,0,0,0,0.0359,0.0359,0,0.0293,0.0292,0.0291,0.0178,0.0176,0.0175,0.0173,-0.0018,-0.0022,-0.0025,0,0,0,0,0,0,0,0,0,0,0,0,0,0,0,0,0,0,0,0,0,0,0,0,0,0,0,0,0,0,0,0,0,0,0,0,0,0,0,0,0,0,0,0,0,0,0,0,0,0,0,0,0,0,0,0,0,0,0,0,0,0,0,0,0,0,0,0,0]}]],[[{"header":{"parameterUnit":"kt","parameterCategory":2,"dx":1,"dy":1,"la1":30.253999710083008,"la2":30.299108505249023,"lo1":-89.0895004272461,"lo2":-89.04439544677734,"nx":28,"ny":28,"refTime":"2022-10-01T21:00:00:Z","depth":"4","parameterNumber":2,"parameterNumberName":"U-component_of_CURRENTS"},"data":[0.1262,0.1373,0.1536,0.1532,0.1619,0.1807,0.2014,0.2324,0.236,0.2793,0.2835,0.3161,0.3249,0.3475,0.3382,0.3417,0.3366,0.3774,0.3764,0.3831,0.3857,0.3879,0.3791,0,0,0,0,0,0.1392,0.151,0.1627,0.1837,0.1994,0.2159,0.2459,0.2681,0.311,0.3092,0.3333,0.3395,0.347,0.355,0.3464,0.3717,0.3795,0.3596,0.3633,0.3847,0.3875,0.378,0,0,0,0,0,0,0.1622,0.1709,0.1956,0.2127,0.2314,0.2432,0.2647,0.2816,0.3041,0.3513,0.3507,0.374,0.3961,0.389,0.3911,0.3894,0.3819,0.3672,0.3708,0.3736,0.3629,0.3504,0.3285,0,0,0,0,0,0.1872,0.2058,0.2181,0.242,0.26,0.2769,0.3017,0.3125,0.35,0.3801,0.3888,0.3991,0.4021,0.4051,0.4074,0.4048,0.4252,0.4137,0.415,0.4074,0.4012,0.3953,0.3959,0.3982,0.3986,0.3988,0.3989,0,0.2136,0.2204,0.2553,0.264,0.2764,0.3016,0.3162,0.3522,0.3644,0.4024,0.406,0.4292,0.4405,0.4243,0.4358,0.4345,0.4278,0.4212,0.4132,0.4057,0.3992,0.399,0.3987,0.4012,0.401,0.4008,0.4006,0,0.2263,0.2437,0.2561,0.284,0.2953,0.3087,0.3424,0.3557,0.3851,0.4072,0.4194,0.4417,0.4487,0.4608,0.4634,0.4489,0.4434,0.4339,0.4563,0.4504,0.4034,0.4022,0.4049,0.4041,0.4034,0.4028,0.4023,0,0.2432,0.2506,0.2758,0.2811,0.2988,0.3161,0.3393,0.3568,0.3858,0.4029,0.4284,0.4389,0.4557,0.4633,0.4618,0.4482,0.464,0.4297,0.4232,0.4436,0.4422,0.4409,0.4391,0.4564,0.4564,0.4564,0.4564,0,0.2482,0.2643,0.2756,0.2809,0.3019,0.3145,0.3306,0.3578,0.374,0.4051,0.4181,0.4405,0.4514,0.4555,0.4567,0.4529,0.4581,0.4511,0.4247,0.4227,0.4402,0.4384,0.4564,0.4564,0.4564,0.4564,0.4564,0,0.2547,0.2628,0.2752,0.2923,0.2973,0.3085,0.3349,0.3495,0.3783,0.3907,0.4123,0.4256,0.4436,0.4379,0.4469,0.4426,0.4391,0.4352,0.435,0.4107,0.3961,0.4113,0.4251,0.4249,0.4247,0.4245,0.4244,0,0.2555,0.2658,0.2724,0.2858,0.2927,0.307,0.321,0.3395,0.3564,0.3763,0.3913,0.4098,0.4092,0.4188,0.4234,0.4237,0.4271,0.422,0.4181,0.4181,0.3953,0.403,0.4204,0.4217,0.422,0.4223,0.4224,0,0.2539,0.2671,0.2694,0.2756,0.2899,0.2978,0.3129,0.3317,0.3454,0.3604,0.3786,0.3935,0.4018,0.407,0.4092,0.4128,0.4221,0.4065,0.4064,0.4067,0.4273,0.4024,0.4016,0.4184,0.4188,0.4191,0.4206,0,0.2593,0.2649,0.2683,0.2774,0.2861,0.2948,0.3069,0.3191,0.3303,0.3405,0.3603,0.3679,0.3825,0.3835,0.3847,0.3986,0.3927,0.3887,0.3849,0.3941,0.3926,0.3941,0.3734,0.3732,0.3731,0.3729,0,0,0.257,0.2607,0.2669,0.2719,0.2785,0.2899,0.297,0.3066,0.3208,0.3301,0.331,0.3519,0.3574,0.3719,0.3761,0.3755,0.3742,0.3769,0.388,0.3897,0.3913,0.3905,0.3922,0.3727,0.3726,0.3725,0.3725,0,0.2564,0.2602,0.2632,0.2702,0.281,0.2871,0.2918,0.3029,0.3116,0.3245,0.3277,0.3396,0.35,0.3567,0.3608,0.3719,0.3696,0.3715,0.3824,0.3864,0.3883,0.3899,0.3896,0.3912,0.3721,0.3721,0.3721,0,0.2551,0.2581,0.2599,0.268,0.2752,0.2824,0.2861,0.2965,0.3048,0.3077,0.3219,0.3274,0.3331,0.3437,0.3495,0.3468,0.3638,0.3588,0.3597,0.3642,0.3683,0.3704,0.3723,0.3481,0.348,0.348,0,0,0.2548,0.2573,0.2645,0.268,0.2724,0.2816,0.2874,0.2935,0.3021,0.3075,0.3151,0.3221,0.3297,0.3356,0.3414,0.3507,0.3509,0.3562,0.3573,0.3583,0.3633,0.3676,0.3696,0.3478,0.3478,0.3478,0,0,0.2552,0.26,0.2625,0.2651,0.2746,0.2822,0.2883,0.2941,0.3049,0.3069,0.3124,0.3149,0.328,0.329,0.3258,0.3415,0.3363,0.3371,0.3427,0.3441,0.3452,0.35,0.3253,0,0,0,0,0,0.2573,0.2582,0.2604,0.2616,0.2699,0.2796,0.2816,0.2902,0.2934,0.3003,0.3073,0.3089,0.3276,0.3249,0.3268,0.3344,0.3452,0.3456,0.3461,0.3553,0.3568,0.358,0,0,0,0,0,0,0.2577,0.2587,0.2605,0.2666,0.2687,0.2793,0.2801,0.2825,0.2931,0.2946,0.3069,0.3089,0.3111,0.3241,0.3258,0.333,0.3247,0.3453,0.3457,0.3461,0.3558,0.357,0.3581,0,0,0,0,0,0.2581,0.259,0.2693,0.2669,0.2687,0.2798,0.2803,0.2824,0.293,0.2983,0.3009,0.3003,0.3108,0.313,0.3251,0.3322,0.3236,0.3242,0.3456,0.3459,0.3462,0.3564,0,0,0,0,0,0,0.2585,0.2618,0.27,0.2711,0.2684,0.28,0.2817,0.2822,0.2965,0.2988,0.291,0.2918,0.3105,0.3123,0.314,0.3319,0.3226,0.3233,0.3237,0.3458,0.3461,0.3463,0,0,0,0,0,0,0.2615,0.2625,0.2706,0.272,0.2733,0.28,0.2816,0.2872,0.2966,0.2885,0.2895,0.2912,0.3089,0.3118,0.3131,0.3216,0.3219,0.3225,0.3229,0.3232,0.346,0.3462,0,0,0,0,0,0,0.2622,0.2631,0.2718,0.2727,0.2739,0.2864,0.2855,0.2942,0.2957,0.2877,0.2963,0.2966,0.3082,0.3098,0.3125,0.3203,0.3213,0.3219,0.3224,0.3226,0.3228,0,0,0,0,0,0,0,0.2627,0.2532,0.2637,0.2734,0.2744,0.2807,0.281,0.2813,0.2958,0.296,0.2962,0.2965,0.3185,0.3191,0.3198,0.3192,0,0,0.3219,0.3222,0,0,0,0,0,0,0,0,0.2531,0.2532,0.2638,0.264,0.2642,0.2807,0.281,0.2812,0.2958,0.296,0.2962,0.2964,0.3187,0.3192,0.3197,0,0,0,0,0,0,0,0,0,0,0,0,0,0,0,0.2638,0.264,0,0.2807,0.2809,0.2811,0.2958,0.296,0.2961,0.2963,0.3188,0.3193,0.3197,0,0,0,0,0,0,0,0,0,0,0,0,0,0,0,0,0,0,0,0,0,0,0,0,0,0,0,0,0,0,0,0,0,0,0,0,0,0,0,0,0,0,0,0,0,0,0,0,0,0,0,0,0,0,0,0,0,0,0,0,0,0,0,0,0,0,0,0,0]}],[{"header":{"parameterUnit":"kt","parameterCategory":2,"dx":1,"dy":1,"la1":30.253999710083008,"la2":30.299108505249023,"lo1":-89.0895004272461,"lo2":-89.04439544677734,"nx":28,"ny":28,"refTime":"2022-10-01T21:00:00:Z","depth":"4","parameterNumber":3,"parameterNumberName":"V-component_of_CURRENTS"},"data":[0.0941,0.1062,0.1091,0.1298,0.1402,0.1561,0.1632,0.1637,0.1629,0.1589,0.1324,0.1181,0.0673,0.093,0.0169,0.006,-0.0105,-0.0654,-0.066,-0.0906,-0.0905,-0.0904,-0.0693,0,0,0,0,0,0.0888,0.0952,0.1079,0.1219,0.1359,0.1436,0.1555,0.1581,0.1596,0.1579,0.1521,0.1247,0.0738,0.0486,0.0171,-0.0018,-0.0476,-0.0402,-0.06,-0.0905,-0.0904,-0.0699,0,0,0,0,0,0,0.0814,0.0861,0.1001,0.1125,0.1264,0.1386,0.1415,0.1507,0.1528,0.1466,0.1434,0.1084,0.0857,0.0349,0.0035,-0.029,-0.039,-0.0484,-0.0505,-0.0509,-0.0286,-0.0059,-0.0236,0,0,0,0,0,0.0762,0.0813,0.0897,0.1053,0.1159,0.1261,0.1382,0.1409,0.1436,0.1367,0.1284,0.1006,0.068,0.0257,-0.0098,-0.0418,-0.0709,-0.0804,-0.0807,-0.076,-0.0632,-0.0666,-0.0638,-0.09,-0.09,-0.09,-0.09,0,0.0743,0.0793,0.0926,0.0998,0.1061,0.1147,0.1222,0.1227,0.1267,0.1178,0.1184,0.0904,0.0745,0.0217,-0.0129,-0.0598,-0.063,-0.08,-0.0748,-0.0627,-0.0668,-0.0639,-0.0611,-0.0899,-0.0899,-0.0899,-0.0899,0,0.0751,0.0817,0.0898,0.1001,0.104,0.1083,0.1176,0.1185,0.1121,0.1098,0.1062,0.0845,0.0567,0.0267,-0.0158,-0.0303,-0.0605,-0.0685,-0.0486,-0.0538,-0.0626,-0.0598,-0.0897,-0.0898,-0.0898,-0.0898,-0.0898,0,0.0793,0.0839,0.0951,0.0981,0.1046,0.108,0.1101,0.1073,0.102,0.1014,0.0845,0.0777,0.0452,0.0238,0.0027,-0.0254,-0.034,-0.0439,-0.051,-0.0384,-0.0359,-0.047,-0.0452,-0.0601,-0.0598,-0.0596,-0.0594,0,0.0777,0.0883,0.0951,0.0976,0.1037,0.1063,0.109,0.1031,0.1027,0.0873,0.0822,0.062,0.0528,0.0273,0.0089,0.0101,-0.0283,-0.0322,-0.0425,-0.0421,-0.045,-0.0436,-0.0591,-0.0591,-0.059,-0.059,-0.0589,0,0.0795,0.0854,0.0939,0.0987,0.0999,0.104,0.1013,0.1029,0.0923,0.087,0.0768,0.0673,0.0547,0.0527,0.0217,0.0313,0.0144,0.0004,-0.0013,-0.0016,-0.0044,-0.014,-0.0193,-0.0189,-0.0185,-0.0181,-0.0177,0,0.074,0.0833,0.0868,0.0936,0.0966,0.0954,0.0977,0.095,0.0903,0.083,0.074,0.0673,0.0682,0.0633,0.0522,0.0345,0.0221,0.0388,-0.0046,-0.0058,-0.0006,-0.0053,0.0179,-0.0121,-0.0128,-0.0133,-0.0137,0,0.0681,0.0766,0.0773,0.0797,0.0832,0.0839,0.0875,0.0856,0.0822,0.0805,0.0737,0.0726,0.0651,0.0616,0.0562,0.0445,0.0302,0.0376,0.0364,0.0252,-0.0064,0.0007,-0.002,0.0205,0.02,0.0196,-0.0098,0,0.0636,0.0685,0.0716,0.0761,0.0774,0.08,0.0784,0.0785,0.0767,0.0725,0.0678,0.0628,0.0558,0.0563,0.0548,0.0452,0.0402,0.035,0.0279,0.0286,0.0164,0.0134,0.0457,0.0455,0.0453,0.0452,0,0,0.0544,0.0611,0.0608,0.065,0.0661,0.0616,0.0653,0.0642,0.0622,0.0598,0.0596,0.0513,0.0492,0.0438,0.0471,0.0461,0.0349,0.0442,0.0317,0.0303,0.029,0.0172,0.0145,0.0449,0.0448,0.0447,0.0447,0,0.052,0.0545,0.0598,0.0601,0.0602,0.0584,0.0593,0.057,0.0554,0.0571,0.0508,0.0477,0.0465,0.0412,0.0386,0.044,0.0307,0.0441,0.048,0.0309,0.0297,0.0286,0.017,0.0147,0.0443,0.0443,0.0443,0,0.0454,0.0473,0.0498,0.0521,0.0509,0.053,0.0467,0.0477,0.0489,0.0409,0.0429,0.0388,0.0334,0.0339,0.0337,0.0311,0.0245,0.0325,0.0333,0.0313,0.013,0.0119,0.011,0.022,0.0219,0.0219,0,0,0.043,0.0479,0.0465,0.0511,0.0511,0.0474,0.0471,0.0445,0.0422,0.0411,0.038,0.0345,0.0321,0.031,0.0286,0.0298,0.0186,0.0302,0.0312,0.0321,0.0307,0.0128,0.0119,0.0218,0.0218,0.0218,0,0,0.0404,0.0422,0.0411,0.0467,0.0454,0.0416,0.0431,0.0401,0.0383,0.0378,0.0317,0.0306,0.0312,0.0276,0.0266,0.0265,0.0216,0.0218,0.0298,0.0311,0.0321,0.0309,0.0193,0,0,0,0,0,0.0371,0.0425,0.0416,0.0423,0.0429,0.0429,0.0424,0.0385,0.0359,0.0368,0.0336,0.0289,0.0254,0.0244,0.0238,0.0257,0.0201,0.0204,0.0207,0.0313,0.0326,0.0338,0,0,0,0,0,0,0.0373,0.0383,0.0414,0.0386,0.0387,0.0427,0.0371,0.036,0.0357,0.0349,0.0298,0.0287,0.0243,0.0243,0.0239,0.0258,0.0195,0.0202,0.0205,0.0207,0.0317,0.0328,0.0338,0,0,0,0,0,0.0375,0.0382,0.0414,0.0383,0.0384,0.0344,0.0369,0.036,0.0352,0.0299,0.0287,0.0325,0.0245,0.0237,0.024,0.0261,0.0198,0.0196,0.0204,0.0206,0.0208,0.0323,0,0,0,0,0,0,0.0376,0.0358,0.0412,0.0409,0.037,0.0339,0.0337,0.036,0.03,0.0291,0.0322,0.0317,0.0247,0.024,0.0235,0.0266,0.02,0.0199,0.0198,0.0205,0.0207,0.0208,0,0,0,0,0,0,0.0354,0.0357,0.041,0.0397,0.0392,0.0336,0.0334,0.0323,0.0299,0.0325,0.032,0.0321,0.0254,0.0243,0.0238,0.0222,0.0202,0.0201,0.02,0.0199,0.0207,0.0208,0,0,0,0,0,0,0.0353,0.0355,0.0397,0.0393,0.0388,0.0348,0.0323,0.033,0.0299,0.0328,0.0295,0.0293,0.0257,0.0252,0.0241,0.0227,0.0223,0.0202,0.0201,0.02,0.02,0,0,0,0,0,0,0,0.0353,0.036,0.0435,0.039,0.0386,0.0382,0.0381,0.038,0.0299,0.0297,0.0296,0.0294,0.0211,0.021,0.0208,0.0231,0,0,0.0202,0.0202,0,0,0,0,0,0,0,0,0.0357,0.0359,0.0435,0.0434,0.0434,0.0382,0.0381,0.038,0.0299,0.0297,0.0296,0.0295,0.0211,0.021,0.0208,0,0,0,0,0,0,0,0,0,0,0,0,0,0,0,0.0435,0.0434,0,0.0382,0.0381,0.038,0.0298,0.0297,0.0296,0.0295,0.0211,0.0209,0.0208,0,0,0,0,0,0,0,0,0,0,0,0,0,0,0,0,0,0,0,0,0,0,0,0,0,0,0,0,0,0,0,0,0,0,0,0,0,0,0,0,0,0,0,0,0,0,0,0,0,0,0,0,0,0,0,0,0,0,0,0,0,0,0,0,0,0,0,0,0]}]]]